Simultaneous Nadir Overpasses (SNOs) Predictions

Prediction of SNOs between GOES-17 and NPP Satellite Orbit:

Table of predicted SNOs for the next 14.0 days since TLE Epoch: 10/26/2024
Index Date Time (GOES-17) GOES-17 Lat,Lon NPP Lat,Lon Distance(km) Time Diff (sec)
1 10/26/2024 20:23:01 0.00,-104.70 0.09,-104.24 51.81 80
2 10/29/2024 08:26:06 -0.00,-104.71 0.05,-104.99 31.59 80
3 10/30/2024 08:04:42 0.00,-104.71 -0.95,-100.46 484.91 80
4 10/31/2024 20:26:38 -0.00,-104.71 -0.26,-105.75 119.19 80
5 11/01/2024 20:10:34 -0.01,-104.72 0.75,-101.22 397.88 80
6 11/03/2024 08:32:22 0.02,-104.73 0.43,-106.49 201.41 80
7 11/04/2024 08:10:57 0.02,-104.73 -0.59,-101.96 314.76 80
8 11/05/2024 20:32:54 -0.02,-104.72 -0.60,-107.27 290.81 80
9 11/06/2024 20:16:49 -0.02,-104.72 0.42,-102.74 225.65 80
10 11/08/2024 08:38:38 0.02,-104.73 0.73,-108.01 373.38 80
